sat.trackr.live / text

‹ back to catalog

STARLINK-33737

NORAD 63456 · 2025-069Z

PAYLOAD ACTIVE UNKNOWN

§ Identity

Operator
Country
US
Launch date
2025-04-04
Launch site
AFWTR
Launch vehicle
Mass (kg)
RCS (m²)

Purposes: comms

External: N2YO · Heavens-Above · Gunter

§ Orbital elements

Epoch: 2026-09-20T10:41:21.232032Z

Period
93.85 min
Inclination
53.1602°
Eccentricity
0.0002143
Mean motion
15.34406950 rev/d
Perigee alt
461.2 km
Apogee alt
464.1 km
Semi-major
6,840.8 km
B*
4.2734e-4
RAAN
309.9504°
Arg perigee
52.3068°
Mean anomaly
307.8128°
Rev number
8,322

§ Raw data

STARLINK-337371 63456U 25069Z   26263.44538463  .00014093  00000+0  42734-3 0  99912 63456  53.1602 309.9504 0002143  52.3068 307.8128 15.34406950 83228

JSON: /api/v1/satellites/63456 · /tle

For live sub-satellite position, see the globe view (requires WebGL).

§ Visibility from observer

Set your observer location to see the next 7 days of passes ≥ 10°. The values pass through the URL so the page stays shareable.

No JS? Fill the form by hand. The geolocation button needs JavaScript.